When you browse on this site, cookies collect data to enhance your experience and personalize the content and advertising you see.
Visit our Privacy Policy to learn more. By continuing to use the site, you agree to this use of cookies and data.
  • Em Portugal
  • Lista de países
  • Para 7 dias
  • Temperatura da água
  • Mapa do tempo
  • Widgets de tempo
  • user-avatar
    Iniciar Sessão

    Previsão horária em Singida

    Hoje, 2 Abril, Quinta-feira

    Tempo Temperatura Precipitação Vento Pressão Humidade
    00:00 +18°C° 0 mm 1 m/s 636 mmHg 94%
    01:00 +18°C° 0 mm 1 m/s 635 mmHg 94%
    02:00 +18°C° 0 mm 1 m/s 635 mmHg 94%
    03:00 +18°C° 0 mm 1 m/s 635 mmHg 94%
    04:00 +18°C° 0 mm 1 m/s 635 mmHg 95%
    05:00 +18°C° 0 mm 1 m/s 635 mmHg 96%
    06:00 +19°C° 0 mm 1 m/s 636 mmHg 93%
    07:00 +19°C° 0 mm 2 m/s 637 mmHg 90%
    08:00 +21°C° 0 mm 2 m/s 638 mmHg 87%
    09:00 +23°C° 1.2 mm 2 m/s 637 mmHg 83%
    10:00 +25°C° 1.2 mm 1 m/s 637 mmHg 79%
    11:00 +26°C° 1.2 mm 1 m/s 637 mmHg 75%
    12:00 +27°C° 1.3 mm 1 m/s 637 mmHg 74%
    13:00 +27°C° 1.3 mm 1 m/s 636 mmHg 72%
    14:00 +27°C° 1.3 mm 1 m/s 635 mmHg 71%
    15:00 +26°C° 1.4 mm 1 m/s 635 mmHg 76%
    16:00 +25°C° 1.4 mm 1 m/s 635 mmHg 82%
    17:00 +24°C° 1.4 mm 1 m/s 635 mmHg 87%
    18:00 +23°C° 1.2 mm 1 m/s 635 mmHg 88%
    19:00 +21°C° 1.2 mm 1 m/s 635 mmHg 89%
    20:00 +20°C° 1.2 mm 1 m/s 635 mmHg 89%
    21:00 +19°C° 0.1 mm 2 m/s 635 mmHg 91%
    22:00 +19°C° 0.1 mm 2 m/s 636 mmHg 92%
    23:00 +18°C° 0.1 mm 3 m/s 636 mmHg 93%

    Amanhã, 3 Abril, Sexta-feira

    Tempo Temperatura Precipitação Vento Pressão Humidade
    00:00 +18°C° 0 mm 3 m/s 636 mmHg 94%
    01:00 +18°C° 0 mm 3 m/s 635 mmHg 94%
    02:00 +18°C° 0 mm 3 m/s 635 mmHg 95%
    03:00 +18°C° 0 mm 3 m/s 635 mmHg 95%
    04:00 +18°C° 0 mm 3 m/s 635 mmHg 95%
    05:00 +18°C° 0 mm 3 m/s 635 mmHg 95%
    06:00 +18°C° 0 mm 3 m/s 636 mmHg 94%
    07:00 +19°C° 0 mm 3 m/s 637 mmHg 92%
    08:00 +19°C° 0 mm 3 m/s 637 mmHg 91%
    09:00 +21°C° 0.1 mm 3 m/s 637 mmHg 86%
    10:00 +22°C° 0.1 mm 3 m/s 637 mmHg 82%
    11:00 +24°C° 0.1 mm 3 m/s 637 mmHg 77%
    12:00 +25°C° 0.9 mm 2 m/s 637 mmHg 78%
    13:00 +25°C° 0.9 mm 2 m/s 636 mmHg 78%
    14:00 +25°C° 0.9 mm 2 m/s 636 mmHg 79%
    15:00 +24°C° 1.7 mm 2 m/s 636 mmHg 83%
    16:00 +23°C° 1.7 mm 2 m/s 636 mmHg 87%
    17:00 +23°C° 1.7 mm 2 m/s 635 mmHg 91%
    18:00 +21°C° 2.5 mm 3 m/s 636 mmHg 93%
    19:00 +20°C° 2.5 mm 3 m/s 636 mmHg 94%
    20:00 +19°C° 2.5 mm 3 m/s 636 mmHg 96%
    21:00 +19°C° 4.8 mm 3 m/s 636 mmHg 96%
    22:00 +19°C° 4.8 mm 3 m/s 637 mmHg 97%
    23:00 +18°C° 4.8 mm 3 m/s 637 mmHg 97%

    Depois de amanhã, 4 Abril, Sábado

    Tempo Temperatura Precipitação Vento Pressão Humidade
    00:00 +18°C° 3.3 mm 3 m/s 636 mmHg 97%
    01:00 +18°C° 3.3 mm 3 m/s 636 mmHg 98%
    02:00 +18°C° 3.3 mm 2 m/s 636 mmHg 98%
    03:00 +18°C° 2.1 mm 2 m/s 636 mmHg 98%
    04:00 +17°C° 2.1 mm 2 m/s 636 mmHg 98%
    05:00 +17°C° 2.1 mm 2 m/s 636 mmHg 98%
    06:00 +17°C° 0.9 mm 2 m/s 637 mmHg 97%
    07:00 +18°C° 0.9 mm 1 m/s 637 mmHg 97%
    08:00 +19°C° 0.9 mm 1 m/s 638 mmHg 96%
    09:00 +19°C° 0.2 mm 1 m/s 638 mmHg 95%
    10:00 +20°C° 0.2 mm 1 m/s 638 mmHg 93%
    11:00 +20°C° 0.2 mm 1 m/s 638 mmHg 91%
    12:00 +21°C° 0.1 mm 1 m/s 638 mmHg 91%
    13:00 +21°C° 0.1 mm 1 m/s 637 mmHg 90%
    14:00 +21°C° 0.1 mm 1 m/s 637 mmHg 89%
    15:00 +21°C° 0.1 mm 1 m/s 637 mmHg 90%
    16:00 +21°C° 0.1 mm 1 m/s 637 mmHg 91%
    17:00 +21°C° 0.1 mm 1 m/s 637 mmHg 91%
    18:00 +20°C° 0 mm 1 m/s 637 mmHg 93%
    19:00 +19°C° 0 mm 1 m/s 637 mmHg 94%
    20:00 +19°C° 0 mm 1 m/s 637 mmHg 96%
    21:00 +19°C° 0 mm 1 m/s 637 mmHg 96%
    22:00 +18°C° 0 mm 1 m/s 637 mmHg 96%
    23:00 +17°C° 0 mm 2 m/s 637 mmHg 96%

    5 Abril, Domingo

    Tempo Temperatura Precipitação Vento Pressão Humidade
    00:00 +17°C° 0 mm 2 m/s 637 mmHg 96%
    01:00 +17°C° 0 mm 2 m/s 636 mmHg 96%
    02:00 +17°C° 0 mm 2 m/s 636 mmHg 96%
    03:00 +17°C° 0 mm 2 m/s 636 mmHg 96%
    04:00 +17°C° 0 mm 2 m/s 636 mmHg 96%
    05:00 +17°C° 0 mm 2 m/s 636 mmHg 96%
    06:00 +18°C° 0 mm 2 m/s 637 mmHg 93%
    07:00 +19°C° 0 mm 2 m/s 638 mmHg 91%
    08:00 +20°C° 0 mm 3 m/s 639 mmHg 88%
    09:00 +21°C° 0.4 mm 2 m/s 639 mmHg 84%
    10:00 +24°C° 0.4 mm 2 m/s 639 mmHg 80%
    11:00 +25°C° 0.4 mm 2 m/s 639 mmHg 76%
    12:00 +25°C° 1.5 mm 2 m/s 638 mmHg 76%
    13:00 +25°C° 1.5 mm 1 m/s 638 mmHg 77%
    14:00 +25°C° 1.5 mm 1 m/s 637 mmHg 77%
    15:00 +24°C° 1.6 mm 1 m/s 637 mmHg 81%
    16:00 +23°C° 1.6 mm 1 m/s 636 mmHg 85%
    17:00 +22°C° 1.6 mm 1 m/s 636 mmHg 89%
    18:00 +21°C° 0.5 mm 1 m/s 636 mmHg 90%
    19:00 +20°C° 0.5 mm 2 m/s 637 mmHg 91%
    20:00 +19°C° 0.5 mm 2 m/s 637 mmHg 92%
    21:00 +18°C° 0.1 mm 2 m/s 637 mmHg 93%
    22:00 +18°C° 0.1 mm 2 m/s 637 mmHg 93%
    23:00 +18°C° 0.1 mm 2 m/s 637 mmHg 94%

    6 Abril, Segunda-feira

    Tempo Temperatura Precipitação Vento Pressão Humidade
    00:00 +18°C° 0.1 mm 2 m/s 636 mmHg 94%
    01:00 +18°C° 0.1 mm 3 m/s 636 mmHg 94%
    02:00 +18°C° 0.1 mm 3 m/s 636 mmHg 94%
    03:00 +18°C° 0.1 mm 3 m/s 636 mmHg 94%
    04:00 +18°C° 0.1 mm 2 m/s 636 mmHg 94%
    05:00 +18°C° 0.1 mm 2 m/s 636 mmHg 95%
    06:00 +18°C° 0 mm 2 m/s 637 mmHg 94%
    07:00 +19°C° 0 mm 2 m/s 638 mmHg 93%
    08:00 +20°C° 0 mm 1 m/s 638 mmHg 92%
    09:00 +22°C° 0.8 mm 1 m/s 638 mmHg 88%
    10:00 +24°C° 0.8 mm 1 m/s 638 mmHg 84%
    11:00 +25°C° 0.8 mm 1 m/s 639 mmHg 79%
    12:00 +25°C° 1.7 mm 1 m/s 638 mmHg 79%
    13:00 +25°C° 1.7 mm 1 m/s 637 mmHg 79%
    14:00 +25°C° 1.7 mm 1 m/s 636 mmHg 78%
    15:00 +25°C° 1.5 mm 1 m/s 636 mmHg 81%
    16:00 +22°C° 1.5 mm 0 m/s 636 mmHg 84%
    17:00 +21°C° 1.5 mm 0 m/s 635 mmHg 87%
    18:00 +20°C° 0.3 mm 0 m/s 636 mmHg 87%
    19:00 +19°C° 0.3 mm 0 m/s 636 mmHg 87%
    20:00 +18°C° 0.3 mm 0 m/s 636 mmHg 88%
    21:00 +20°C° 0.1 mm 1 m/s 636 mmHg 88%
    22:00 +20°C° 0.1 mm 1 m/s 636 mmHg 89%
    23:00 +19°C° 0.1 mm 1 m/s 637 mmHg 90%

    7 Abril, Terça-feira

    Tempo Temperatura Precipitação Vento Pressão Humidade
    00:00 +19°C° 0 mm 1 m/s 636 mmHg 90%
    01:00 +19°C° 0 mm 1 m/s 636 mmHg 91%
    02:00 +19°C° 0 mm 1 m/s 636 mmHg 91%
    03:00 +19°C° 0 mm 1 m/s 636 mmHg 91%
    04:00 +19°C° 0 mm 1 m/s 636 mmHg 91%
    05:00 +19°C° 0 mm 1 m/s 636 mmHg 91%
    06:00 +19°C° 0 mm 1 m/s 637 mmHg 90%
    07:00 +19°C° 0 mm 2 m/s 638 mmHg 90%
    08:00 +20°C° 0 mm 3 m/s 638 mmHg 89%
    09:00 +21°C° 0.8 mm 3 m/s 638 mmHg 87%
    10:00 +22°C° 0.8 mm 3 m/s 638 mmHg 85%
    11:00 +22°C° 0.8 mm 3 m/s 638 mmHg 83%
    12:00 +24°C° 1.1 mm 2 m/s 638 mmHg 81%
    13:00 +25°C° 1.1 mm 2 m/s 637 mmHg 79%
    14:00 +25°C° 1.1 mm 2 m/s 636 mmHg 76%
    15:00 +24°C° 1.3 mm 2 m/s 636 mmHg 81%
    16:00 +24°C° 1.3 mm 1 m/s 636 mmHg 85%
    17:00 +23°C° 1.3 mm 1 m/s 635 mmHg 90%
    18:00 +22°C° 0.7 mm 1 m/s 636 mmHg 90%
    19:00 +21°C° 0.7 mm 1 m/s 636 mmHg 91%
    20:00 +20°C° 0.7 mm 1 m/s 636 mmHg 92%
    21:00 +20°C° 0.3 mm 1 m/s 636 mmHg 92%
    22:00 +20°C° 0.3 mm 1 m/s 637 mmHg 93%
    23:00 +19°C° 0.3 mm 2 m/s 637 mmHg 93%
    Mostrar mais